Погода в Пудине

Россия / Томская область     57°34′15″N   79°26′33″E
темп.,
°C
ветер,
м/с
пор.,
м/с
влажн.,
%
обл.,
%
осадки,
мм/ч
давл.,
гПа
погр.,
м
10 мая, пн
пн1001:00+4всв28764 0.0 1025160
04:00+3всв23815 0.0 102659
07:00+4всв25775 0.0 1027140
10:00+10св245316 0.0 1027905
13:00+13св344360 0.0 10261663
16:00+15св453658 0.0 10252062
19:00+12ссв574955 0.0 10241004
22:00+7св49648 0.0 1025470
11 мая, вт
вт1101:00+4ссв397913 0.0 1025262
04:00+4ссв3876100 0.0 1024300
07:00+5ссв3877100 0.0 1025310
10:00+10ссв46575 0.0 1025673
13:00+14ссв444036 0.0 10241923
16:00+15ссв453584 0.0 10232279
19:00+15ссв343633 0.0 10232080
22:00+10св226060 0.0 102438
12 мая, ср
ср1201:00+6с11720 0.0 102410
04:00+5юв11790 0.0 102410
07:00+6юз12729 0.0 102467
10:00+12зюз2348100 0.0 1023720
13:00+15зюз2337100 0.0 10211220
16:00+18з2335100 0.0 10192051
19:00+13юв1262100 0.1 1019174
22:00+10ссз478198 0.1 1020374
13 мая, чт
чт1301:00+8с4893100 0.9 1020500
04:00+7с3890100 0.3 1020527
07:00+7ссз369176 0.3 1021390
10:00+9с347377 0.0 1021792
13:00+12с235696 0.1 10201346
16:00+16ссз2437100 0.0 10192096
19:00+15сз3435100 0.0 10181952
22:00+10з224987 0.0 101714
14 мая, пт
пт1401:00+8сз1181100 0.9 101735
04:00+8сз41191100 0.5 1016804
07:00+7ссз61078100 0.7 10191107
10:00+7ссз695399 0.0 10211085
13:00+11ссз693031 0.0 10221624
16:00+13ссз592521 0.0 10221965
19:00+12сз4628100 0.0 10211782
22:00+9з1145100 0.0 102111